SCP
0 0 0 0 0 0 0 0 0 0 0 0 0 0 0 0 0 0 0 0 0 0 0 0 0 0 0 0 0 0 0 0 0 0 0 0 0 0
0 0 0 0 0 0 0 0 0 0 0 0 0 0 0 0 0 0 0 0 0 0 0 0 0 0 0 0 0 0 0 0 0 0 0 0 0 0
0 0 0 0 0 0 0 0 0 0 0 0 0 0 0 0 0 0 0 0 0 0 0 0 0 0 0 0 0 0 0 0 0 0 0 0 0 0
0 0 0 0 0 0 0 0 0 0 0 0 0 0 0 0 0 0 0 0 0 0 0 0 0 0 0 0 0 0 0 0 0 0 0 0 0 0
0 0 0 0 0 0 0 0 0 0 0 0 0 0 0 0 0 0 0 0 0 0 0 0 0 0 0 0 0 0 0 0 0 0 0 -0 0 0
0 0 0 0 0 0 0 0 0 0 0 0 0 0 0 0 0 0 0 0 0 0 0 0 0 0 0 0 0 0 0 0 0 0 0 0 0 0
0 0 0 0 0 0 0 0 0 0 0 0 0 0 0 0 0 0 0 0 0 0 0 0 0 0 0 0 0 0 0 0 0 0 0 0 0 0
0 0 0 0 0 0 0 0 0 0 0 0 0 0 0 0 0 0 0 0 0 0 0 0 0 0 0 0 0 0 0 0 0 0 0 0 0 0
0 0 0 0 0 0 0 0 0 0 0 0 0 0 0 0 0 0 0 -0 0 0 0 0 0 0 0 0 0 0 -0 0 0 0 0 0 0 0
0 0 0 0 0 0 0 0 0 0 0 0 0 0 0 0 0 -0 -0 -0 0 0 0 0 0 0 0 0 0 0 0 0 0 0 0 0 0 0
0 0 0 0 0 0 0 0 0 0 0 0 0 0 0 0 0 -0 -0 0 0 0 0 0 0 0 0 0 0 0 0 0 -0 -0 -0 -0 -0 -0
0 0 0 0 0 0 0 0 0 0 0 0 0 0 0 0 0 0 -0 0 0 0 0 0 0 0 0 0 0 0 0 -0 -0 -0 -0 -0 -0 -0
0 0 0 0 0 0 0 0 0 0 0 0 0 0 0 0 0 0 -0 -0 0 0 0 0 0 0 0 0 0 0 0 0 0 0 -0 -0 -0 -0
0 0 0 0 0 0 0 0 0 0 0 0 0 0 0 0 0 -0 -0 -0 0 0 0 0 0 0 0 0 0 0 0 0 0 -0 -0 -0 -0 -0
0 0 0 0 0 0 0 0 0 0 0 0 0 0 0 0 0 -0 0 0 0 0 0 0 0 0 0 0 0 0 0 0 0 0 0 -0 0 0
0 0 0 0 0 0 0 0 0 0 0 0 0 0 0 0 -0 0 0 0 0 0 0 0 0 0 0 0 0 0 -0 0 0 0 0 0 0 0
0 0 0 0 0 0 0 0 0 0 0 0 0 0 0 0 -0 0 0 0 0 0 0 0 0 0 0 0 0 0 0 0 0 0 0 0 0 0
0 0 0 0 0 0 0 0 0 0 0 0 0 0 0 0 0 0 0 0 0 0 0 0 0 0 0 0 0 0 0 0 0 0 0 0 0 0
0 0 0 0 0 0 0 0 0 0 0 0 0 0 0 0 0 0 0 0 0 0 0 0 0 0 0 0 0 0 0 0 0 -0 -0 0 0 0
0 0 0 0 0 0 0 0 0 0 0 0 0 0 0 0 0 0 0 0 0 0 0 0 0 0 0 0 0 0 0 0 0 -0 -0 0 0 -0
0 0 0 0 0 0 0 0 0 0 -0 -0 0 0 0 0 0 0 0 0 0 0 0 0 0 0 0 0 0 0 0 0 0 0 0 0 0 0
0 0 0 0 0 0 0 0 0 0 0 0 0 0 0 0 0 0 0 0 0 0 0 0 0 0 0 0 0 0 0 0 0 -0 -0 -0 0 0
0 0 0 0 0 0 0 0 0 0 -0 0 0 0 0 -0 -0 0 0 0 0 0 0 0 0 0 0 0 0 0 0 0 0 0 -0 -0 -0 -0
Wind_Speed_500mb
37 41 43 40 42 39 38 38 42 62 60 50 46 36 43 45 51 50 50 57 55 52 50 50 52 52 49 42 38 44 43 50 56 54 57 54 58 60
40 46 48 43 46 44 43 41 41 48 63 50 48 43 45 51 51 46 46 55 51 51 50 49 47 46 45 40 39 43 45 51 58 59 58 63 61 62
48 52 52 53 44 49 45 40 42 42 60 57 48 46 45 45 49 47 47 48 44 47 39 41 45 45 41 40 40 43 45 52 54 58 60 63 64 65
55 56 55 47 53 46 40 40 43 47 51 61 47 53 48 56 55 52 46 42 44 42 32 37 40 40 38 42 32 36 46 50 54 57 62 62 61 58
51 48 47 52 49 40 37 37 38 40 44 53 59 56 54 54 52 41 40 42 37 33 28 30 32 35 31 28 30 39 44 51 58 55 57 57 56 60
49 47 48 50 44 36 38 36 37 41 42 43 49 46 41 40 45 41 44 37 39 27 22 23 26 28 19 23 29 35 42 54 49 43 47 52 53 53
51 47 43 43 38 41 45 44 41 40 42 42 40 42 43 43 40 44 45 41 40 17 22 23 20 12 13 19 26 34 41 56 37 31 34 21 25 39
50 49 40 40 36 46 46 43 40 42 45 44 48 42 43 38 36 35 35 40 44 14 32 14 10 10 13 20 28 37 42 48 24 22 25 16 20 32
53 57 45 38 39 46 44 42 40 38 38 37 41 36 38 33 35 34 34 37 38 29 28 28 23 10 10 19 28 39 41 36 14 17 23 18 17 29
55 50 46 41 40 45 46 46 44 42 35 34 30 33 35 34 33 34 36 37 29 17 21 20 23 18 10 22 29 37 38 29 11 18 17 11 20 21
57 46 44 43 43 46 47 49 48 44 40 36 34 32 32 33 35 32 26 30 30 18 10 30 27 23 9 26 31 28 32 17 17 18 15 4 21 24
59 50 43 41 43 44 46 48 52 48 45 43 35 29 26 29 30 24 19 23 22 17 17 29 22 32 13 22 29 22 25 21 15 22 26 24 20 28
54 53 44 46 46 45 47 52 51 46 44 42 38 30 21 21 23 17 15 17 21 22 19 23 26 29 20 22 28 21 20 16 23 26 37 35 27 22
49 47 48 48 45 45 48 51 49 41 38 38 33 23 19 19 18 15 18 17 19 16 15 13 24 25 21 19 17 17 18 21 35 48 51 49 44 34
46 50 50 48 49 49 47 47 40 34 32 31 27 23 18 17 16 14 12 15 15 14 17 11 20 11 8 16 20 38 60 46 43 42 53 50 55 52
56 55 51 49 44 44 45 39 33 31 29 28 28 25 18 13 14 12 8 9 8 10 13 12 5 5 9 8 7 23 34 51 57 70 69 71 69 67
59 52 46 40 40 41 37 32 34 33 29 24 24 22 17 12 12 9 7 4 7 8 8 6 4 9 19 27 45 50 45 52 46 56 60 62 60 61
46 43 42 38 37 36 36 34 35 29 27 23 21 19 16 14 12 9 5 4 6 3 7 14 15 30 20 33 37 43 42 44 47 52 54 61 63 57
49 48 44 42 39 38 32 31 28 25 24 21 18 16 17 16 14 8 5 6 6 5 17 11 27 16 37 40 38 36 34 33 35 43 49 52 56 51
51 46 45 42 38 34 29 25 26 22 20 15 13 13 18 21 18 10 9 8 11 12 17 15 26 29 44 50 46 34 32 34 38 43 45 46 49 45
51 46 42 39 35 31 27 25 21 16 13 10 10 12 19 26 20 14 13 14 17 16 18 18 27 45 52 48 50 44 38 32 29 27 26 27 30 33
48 46 42 37 32 27 24 20 15 10 5 5 10 14 22 28 22 19 19 20 20 26 25 26 53 41 49 46 49 42 37 33 30 25 24 19 10 16
47 44 41 36 29 23 21 20 14 8 3 6 14 18 27 29 25 23 24 25 23 24 21 35 42 49 49 47 42 42 39 36 34 37 42 34 32 34
Wind_Direction_500mb
331 333 332 327 328 321 309 302 305 307 310 311 307 299 295 302 305 305 303 302 297 286 283 282 282 282 285 280 275 277 277 273 274 269 267 272 269 265
320 320 322 316 319 319 312 301 294 297 298 306 307 305 302 305 310 305 299 304 299 289 282 279 282 285 282 279 278 279 284 286 281 282 276 272 269 262
310 307 309 309 312 317 313 306 296 296 300 301 301 305 305 309 310 308 306 304 301 297 279 279 280 285 274 274 275 281 292 295 292 285 280 275 270 258
307 305 306 306 313 317 315 311 302 308 307 309 306 309 296 311 315 313 311 305 301 297 278 286 282 279 272 271 277 289 297 300 295 286 281 274 267 255
313 308 307 309 313 314 320 323 318 315 313 307 304 307 311 315 313 313 317 313 311 301 292 285 278 281 265 268 283 294 303 310 300 291 284 276 262 249
322 316 311 310 311 314 315 315 314 318 317 317 315 315 312 311 317 312 318 321 311 311 301 291 287 276 263 278 294 302 306 311 302 290 288 278 258 239
327 318 311 311 303 305 305 309 311 312 317 317 315 313 315 320 319 317 316 315 321 333 316 303 284 268 274 296 314 315 309 321 301 295 312 295 235 225
330 324 315 312 305 305 307 308 308 310 308 307 310 310 314 314 313 317 316 317 324 353 331 353 323 295 303 324 324 324 324 324 289 294 308 289 238 218
328 332 316 313 318 321 317 315 307 309 305 308 309 305 306 310 310 313 312 313 313 323 326 337 356 336 313 335 329 333 323 337 312 310 317 277 236 213
318 327 316 317 319 323 320 315 310 311 313 306 302 303 299 302 305 303 303 306 324 333 336 326 355 359 357 352 340 337 331 344 1 345 323 275 214 204
320 318 312 310 311 320 321 318 314 313 312 311 301 304 302 302 306 304 293 299 325 332 358 345 357 349 337 11 357 344 338 10 36 16 27 52 175 177
313 309 307 303 309 312 319 320 313 312 309 310 308 303 301 304 308 301 282 286 315 336 330 347 0 2 339 10 7 7 5 11 42 48 44 59 144 167
303 303 297 300 303 303 309 314 313 306 304 304 304 307 313 303 310 303 279 277 291 295 310 332 331 352 360 352 21 13 20 57 90 85 81 77 82 155
302 300 303 294 295 300 304 307 311 305 301 301 299 298 305 304 306 299 278 275 288 303 326 299 308 331 344 20 23 49 64 80 113 112 103 91 84 124
318 306 297 296 297 300 306 306 308 306 303 297 293 289 294 297 296 300 281 281 295 281 336 283 309 341 55 97 43 75 77 88 106 106 114 105 95 97
318 316 313 303 299 302 302 305 309 309 302 291 285 284 278 283 285 294 284 277 282 277 296 284 325 111 99 132 31 89 101 91 91 98 95 96 96 96
317 317 318 314 303 303 304 304 308 307 302 289 278 275 261 255 263 265 268 268 288 276 298 207 152 127 125 117 112 101 93 93 93 99 96 93 84 82
325 327 324 319 313 309 306 301 307 302 301 288 271 264 242 229 236 236 230 207 291 218 87 158 140 129 131 124 113 104 99 96 95 91 91 95 89 83
338 332 326 322 318 315 309 302 306 300 296 286 264 251 219 216 208 209 180 180 185 57 112 120 171 148 138 112 117 102 95 97 99 95 94 92 93 92
335 330 329 328 324 325 320 313 307 300 295 281 249 231 202 194 186 184 162 158 153 75 114 104 159 161 140 122 111 102 104 96 97 96 96 97 95 94
346 343 341 338 334 329 326 319 316 310 297 266 224 205 187 181 182 177 149 133 129 100 98 109 135 143 134 127 112 106 96 91 100 96 87 89 100 102
351 351 351 348 346 346 349 350 349 341 316 214 185 176 171 172 173 164 141 136 123 124 103 118 138 130 137 126 114 110 100 93 88 94 116 123 107 110
353 353 353 353 356 360 356 355 359 3 29 147 159 158 159 162 162 152 146 144 126 136 123 142 145 145 139 125 118 110 104 100 99 99 92 88 98 98
Wind_Speed_850mb
37 41 43 40 42 39 38 38 42 62 60 50 46 36 43 45 51 50 50 57 55 52 50 50 52 52 49 42 38 44 43 50 56 54 57 54 58 60
40 46 48 43 46 44 43 41 41 48 63 50 48 43 45 51 51 46 46 55 51 51 50 49 47 46 45 40 39 43 45 51 58 59 58 63 61 62
48 52 52 53 44 49 45 40 42 42 60 57 48 46 45 45 49 47 47 48 44 47 39 41 45 45 41 40 40 43 45 52 54 58 60 63 64 65
55 56 55 47 53 46 40 40 43 47 51 61 47 53 48 56 55 52 46 42 44 42 32 37 40 40 38 42 32 36 46 50 54 57 62 62 61 58
51 48 47 52 49 40 37 37 38 40 44 53 59 56 54 54 52 41 40 42 37 33 28 30 32 35 31 28 30 39 44 51 58 55 57 57 56 60
49 47 48 50 44 36 38 36 37 41 42 43 49 46 41 40 45 41 44 37 39 27 22 23 26 28 19 23 29 35 42 54 49 43 47 52 53 53
51 47 43 43 38 41 45 44 41 40 42 42 40 42 43 43 40 44 45 41 40 17 22 23 20 12 13 19 26 34 41 56 37 31 34 21 25 39
50 49 40 40 36 46 46 43 40 42 45 44 48 42 43 38 36 35 35 40 44 14 32 14 10 10 13 20 28 37 42 48 24 22 25 16 20 32
53 57 45 38 39 46 44 42 40 38 38 37 41 36 38 33 35 34 34 37 38 29 28 28 23 10 10 19 28 39 41 36 14 17 23 18 17 29
55 50 46 41 40 45 46 46 44 42 35 34 30 33 35 34 33 34 36 37 29 17 21 20 23 18 10 22 29 37 38 29 11 18 17 11 20 21
57 46 44 43 43 46 47 49 48 44 40 36 34 32 32 33 35 32 26 30 30 18 10 30 27 23 9 26 31 28 32 17 17 18 15 4 21 24
59 50 43 41 43 44 46 48 52 48 45 43 35 29 26 29 30 24 19 23 22 17 17 29 22 32 13 22 29 22 25 21 15 22 26 24 20 28
54 53 44 46 46 45 47 52 51 46 44 42 38 30 21 21 23 17 15 17 21 22 19 23 26 29 20 22 28 21 20 16 23 26 37 35 27 22
49 47 48 48 45 45 48 51 49 41 38 38 33 23 19 19 18 15 18 17 19 16 15 13 24 25 21 19 17 17 18 21 35 48 51 49 44 34
46 50 50 48 49 49 47 47 40 34 32 31 27 23 18 17 16 14 12 15 15 14 17 11 20 11 8 16 20 38 60 46 43 42 53 50 55 52
56 55 51 49 44 44 45 39 33 31 29 28 28 25 18 13 14 12 8 9 8 10 13 12 5 5 9 8 7 23 34 51 57 70 69 71 69 67
59 52 46 40 40 41 37 32 34 33 29 24 24 22 17 12 12 9 7 4 7 8 8 6 4 9 19 27 45 50 45 52 46 56 60 62 60 61
46 43 42 38 37 36 36 34 35 29 27 23 21 19 16 14 12 9 5 4 6 3 7 14 15 30 20 33 37 43 42 44 47 52 54 61 63 57
49 48 44 42 39 38 32 31 28 25 24 21 18 16 17 16 14 8 5 6 6 5 17 11 27 16 37 40 38 36 34 33 35 43 49 52 56 51
51 46 45 42 38 34 29 25 26 22 20 15 13 13 18 21 18 10 9 8 11 12 17 15 26 29 44 50 46 34 32 34 38 43 45 46 49 45
51 46 42 39 35 31 27 25 21 16 13 10 10 12 19 26 20 14 13 14 17 16 18 18 27 45 52 48 50 44 38 32 29 27 26 27 30 33
48 46 42 37 32 27 24 20 15 10 5 5 10 14 22 28 22 19 19 20 20 26 25 26 53 41 49 46 49 42 37 33 30 25 24 19 10 16
47 44 41 36 29 23 21 20 14 8 3 6 14 18 27 29 25 23 24 25 23 24 21 35 42 49 49 47 42 42 39 36 34 37 42 34 32 34
Wind_Direction_850mb
331 333 332 327 328 321 309 302 305 307 310 311 307 299 295 302 305 305 303 302 297 286 283 282 282 282 285 280 275 277 277 273 274 269 267 272 269 265
320 320 322 316 319 319 312 301 294 297 298 306 307 305 302 305 310 305 299 304 299 289 282 279 282 285 282 279 278 279 284 286 281 282 276 272 269 262
310 307 309 309 312 317 313 306 296 296 300 301 301 305 305 309 310 308 306 304 301 297 279 279 280 285 274 274 275 281 292 295 292 285 280 275 270 258
307 305 306 306 313 317 315 311 302 308 307 309 306 309 296 311 315 313 311 305 301 297 278 286 282 279 272 271 277 289 297 300 295 286 281 274 267 255
313 308 307 309 313 314 320 323 318 315 313 307 304 307 311 315 313 313 317 313 311 301 292 285 278 281 265 268 283 294 303 310 300 291 284 276 262 249
322 316 311 310 311 314 315 315 314 318 317 317 315 315 312 311 317 312 318 321 311 311 301 291 287 276 263 278 294 302 306 311 302 290 288 278 258 239
327 318 311 311 303 305 305 309 311 312 317 317 315 313 315 320 319 317 316 315 321 333 316 303 284 268 274 296 314 315 309 321 301 295 312 295 235 225
330 324 315 312 305 305 307 308 308 310 308 307 310 310 314 314 313 317 316 317 324 353 331 353 323 295 303 324 324 324 324 324 289 294 308 289 238 218
328 332 316 313 318 321 317 315 307 309 305 308 309 305 306 310 310 313 312 313 313 323 326 337 356 336 313 335 329 333 323 337 312 310 317 277 236 213
318 327 316 317 319 323 320 315 310 311 313 306 302 303 299 302 305 303 303 306 324 333 336 326 355 359 357 352 340 337 331 344 1 345 323 275 214 204
320 318 312 310 311 320 321 318 314 313 312 311 301 304 302 302 306 304 293 299 325 332 358 345 357 349 337 11 357 344 338 10 36 16 27 52 175 177
313 309 307 303 309 312 319 320 313 312 309 310 308 303 301 304 308 301 282 286 315 336 330 347 0 2 339 10 7 7 5 11 42 48 44 59 144 167
303 303 297 300 303 303 309 314 313 306 304 304 304 307 313 303 310 303 279 277 291 295 310 332 331 352 360 352 21 13 20 57 90 85 81 77 82 155
302 300 303 294 295 300 304 307 311 305 301 301 299 298 305 304 306 299 278 275 288 303 326 299 308 331 344 20 23 49 64 80 113 112 103 91 84 124
318 306 297 296 297 300 306 306 308 306 303 297 293 289 294 297 296 300 281 281 295 281 336 283 309 341 55 97 43 75 77 88 106 106 114 105 95 97
318 316 313 303 299 302 302 305 309 309 302 291 285 284 278 283 285 294 284 277 282 277 296 284 325 111 99 132 31 89 101 91 91 98 95 96 96 96
317 317 318 314 303 303 304 304 308 307 302 289 278 275 261 255 263 265 268 268 288 276 298 207 152 127 125 117 112 101 93 93 93 99 96 93 84 82
325 327 324 319 313 309 306 301 307 302 301 288 271 264 242 229 236 236 230 207 291 218 87 158 140 129 131 124 113 104 99 96 95 91 91 95 89 83
338 332 326 322 318 315 309 302 306 300 296 286 264 251 219 216 208 209 180 180 185 57 112 120 171 148 138 112 117 102 95 97 99 95 94 92 93 92
335 330 329 328 324 325 320 313 307 300 295 281 249 231 202 194 186 184 162 158 153 75 114 104 159 161 140 122 111 102 104 96 97 96 96 97 95 94
346 343 341 338 334 329 326 319 316 310 297 266 224 205 187 181 182 177 149 133 129 100 98 109 135 143 134 127 112 106 96 91 100 96 87 89 100 102
351 351 351 348 346 346 349 350 349 341 316 214 185 176 171 172 173 164 141 136 123 124 103 118 138 130 137 126 114 110 100 93 88 94 116 123 107 110
353 353 353 353 356 360 356 355 359 3 29 147 159 158 159 162 162 152 146 144 126 136 123 142 145 145 139 125 118 110 104 100 99 99 92 88 98 98